Location: Daybis Observatory
(33.4273°N, 88.8061°W)
Time: 13:01:47
(UTC-05:00)

Daily predictions for brighter satellites

Satellite Brightness Start Highest point End
(mag) Time Altitude Azimuth Time Altitude Azimuth Time Altitude Azimuth
H-2A R/B 3.0 20:20:57 10° SSE 20:24:31 48° ENE 20:28:07 10° N
Resurs 1-3 4.3 20:20:22 10° S 20:24:40 57° W 20:29:00 10° NNW
ISS -2.2 20:27:15 10° S 20:29:56 24° SE 20:32:37 10° ENE
NOSS 2-2 (C) 3.5 20:27:11 10° SSW 20:31:13 84° WNW 20:35:41 10° NNE
SL-27 R/B 4.3 20:30:37 10° NNE 20:33:07 17° ENE 20:35:34 10° ESE
Cosmos 2181 Rocket 4.2 20:32:18 10° N 20:38:45 83° W 20:45:06 10° S
H-2A R/B 3.6 20:38:18 10° ESE 20:41:23 20° ENE 20:44:27 10° NNE
Envisat 4.1 20:42:57 11° SE 20:46:57 28° ENE 20:51:13 10° NNE
ATLAS 5 CENTAUR R/B 2.7 20:41:18 10° NNW 20:47:18 54° ENE 20:52:58 13° SE
USA 186 1.8 20:44:48 10° S 20:47:48 75° W 20:51:00 10° NNW
Cosmos 1624 Rocket 4.1 20:43:48 10° SSW 20:49:03 83° WNW 20:54:23 10° NNE
SEDSat Delta rocket 4.4 20:46:50 10° SSW 20:49:46 18° SSE 20:51:23 15° SE
Cosmos 2074 Rocket 4.0 20:45:54 10° S 20:52:10 81° E 20:58:27 10° N
PSLV R/B 4.1 20:49:37 10° NW 20:52:55 44° NNE 20:55:41 14° E
ERBS 2.9 20:49:58 10° NNW 20:53:20 46° NE 20:55:38 18° ESE
COSMOS 2406 3.4 20:48:38 10° NNW 20:54:19 58° ENE 20:59:15 13° SE
Okean 1-7 4.2 20:51:20 10° NNW 20:55:25 43° W 20:59:31 10° SSW
GPS 2-05 Rocket1 2.9 20:53:31 10° WSW 20:57:13 70° SSE 21:00:35 12° E
OAO 3 Rocket 4.2 20:54:58 10° SSW 20:59:11 28° SSE 21:02:07 16° ESE
CZ-4 DEB 2.6 20:57:07 11° SSE 21:00:06 83° ENE 21:03:17 10° N
Cosmos 1610 Rocket 4.5 20:55:28 10° S 21:01:30 64° E 21:07:38 10° NNE
Cosmos 2278 Rocket 2.7 20:56:43 10° S 21:01:51 36° ESE 21:07:00 10° NE
Meteosat 1 Rocket2 4.3 20:57:34 10° WSW 21:03:02 57° S 21:10:23 14° E
Abrixas rocket 3.3 21:00:04 10° WNW 21:03:15 38° SW 21:05:28 17° SSE
Resurs 01 Rocket 4.5 21:03:25 10° SW 21:05:41 14° W 21:07:59 10° WNW
Cosmos 1825 3.3 21:04:36 21° SE 21:05:58 26° E 21:09:11 10° NNE
Cosmos 1844 3.7 21:00:21 10° S 21:06:00 66° ESE 21:11:45 10° NNE
Okean 2 Rocket 4.5 21:05:29 18° ESE 21:06:24 19° E 21:09:33 10° NE
ERS-1 Rocket 3.0 21:02:31 12° SSE 21:07:10 69° ENE 21:12:11 10° N
Cosmos 1844 Rocket 2.7 21:01:48 10° SSW 21:07:28 87° WNW 21:13:08 10° NNE
Cosmos 1408 3.7 21:06:51 23° ESE 21:07:55 26° E 21:11:00 10° NNE
Cosmos 407 Rocket 4.0 21:03:30 10° N 21:08:32 44° ENE 21:11:46 21° SE
Cosmos 1674 Rocket 3.6 21:08:20 10° N 21:12:46 65° E 21:15:57 18° SSE
Cosmos 1452 Rocket 3.5 21:07:58 10° S 21:13:06 59° ESE 21:18:18 10° NNE
Sich 1 Rocket 3.6 21:10:03 10° S 21:14:36 73° E 21:19:11 10° N
EO 1 Delta rocket 4.2 21:11:32 10° NNE 21:17:22 59° E 21:21:49 12° S
Meteor 1-10 Rocket 4.2 21:11:59 10° N 21:17:49 86° E 21:23:01 13° S
Cosmos 1862 3.5 21:19:16 21° SSE 21:21:42 53° E 21:25:41 10° NNE
Cosmos 1190 Rocket 3.9 21:17:01 10° NNW 21:22:14 76° ENE 21:25:31 23° SSE
Cosmos 1782 Rocket 4.2 21:21:11 27° SE 21:22:49 37° E 21:26:57 10° NNE
Okean 3 4.5 21:19:13 10° NNE 21:22:55 28° ENE 21:23:40 26° E
Cosmos 2082 Rocket 4.3 21:22:58 10° NNE 21:25:04 12° NE 21:27:07 10° ENE
USA 234 3.9 21:21:26 10° ENE 21:26:59 29° SE 21:32:31 10° S
Meteor 2-10 Rocket 4.5 21:23:31 10° NNW 21:29:07 52° W 21:34:33 10° SSW
Cosmos 2341 Rocket 4.0 21:25:01 13° S 21:30:31 60° E 21:36:41 10° NNE
CZ-4B R/B 4.0 21:26:59 10° NE 21:31:23 33° E 21:32:06 31° ESE
Cosmos 2297 4.3 21:34:15 30° SE 21:35:44 35° ESE 21:40:51 10° NE
Cosmos 1184 Rocket 2.8 21:39:00 59° E 21:39:00 59° E 21:42:16 10° NNE
CZ-4 SHROUD 4.0 21:41:31 37° NE 21:41:31 37° NE 21:43:57 10° N
Cosmos 1975 Rocket 3.5 21:38:23 10° N 21:42:27 39° E 21:42:49 39° E
Meteor 1-27 Rocket 3.6 21:40:53 10° N 21:46:27 89° E 21:49:19 30° S
Cosmos 1908 Rocket 4.1 21:43:41 11° SSW 21:47:45 57° W 21:52:07 10° N
SL-8 Rocket 4.3 21:45:50 33° SE 21:48:07 47° E 21:54:04 10° NNE
Cosmos 962 Rocket 4.4 21:43:22 16° S 21:48:27 85° E 21:54:41 10° N
Cosmos 1606 2.8 21:45:37 10° N 21:49:33 74° W 21:50:39 45° SSW
PSLV R/B 3.8 21:50:18 44° NNE 21:50:18 44° NNE 21:52:30 10° N
Cosmos 1782 4.2 21:48:49 10° NNW 21:52:31 36° W 21:55:00 18° SSW
Cosmos 676 Rocket 3.9 21:47:25 10° NNW 21:52:39 86° ENE 21:54:26 42° SSE
CENTAUR R/B 3.9 21:45:19 10° NW 21:52:54 46° WSW 21:59:04 17° S
Dummy Sat-01 4.5 21:51:01 10° N 21:54:46 74° E 21:54:47 74° E
Cosmos 1378 Rocket 3.4 21:51:27 10° N 21:55:46 83° W 21:56:50 51° S
Cosmos 1174 3.9 21:53:11 10° NNW 21:55:34 46° N 21:55:34 46° N
Cosmos 1939 Rocket 4.1 21:54:40 22° SSW 21:56:32 36° W 22:00:08 10° NNW
Cosmos 1954 Rocket 3.9 21:52:53 10° NNW 21:58:06 73° ENE 21:59:24 51° SE
Cosmos 2154 Rocket 4.4 21:52:28 10° SSW 21:58:37 60° W 22:04:44 10° N
USA 245 4.0 22:00:54 35° NNE 22:00:54 35° NNE 22:03:28 10° N
Atlas Centaur 2 2.4 22:01:29 10° W 22:03:38 30° WSW 22:03:38 30° WSW
COS B Rocket 4.3 22:01:30 10° NNW 22:05:17 41° W 22:06:28 31° SW
ISS -0.9 22:03:33 10° W 22:06:17 24° NW 22:09:02 10° NNE
SPOT 5 3.4 22:06:17 35° SSW 22:08:24 63° WSW 22:13:42 10° NNW
Terra 3.4 22:09:02 22° ENE 22:09:02 22° ENE 22:12:11 10° NNE
MetOp-B 4.1 22:07:14 44° S 22:08:58 79° WSW 22:14:19 10° NNW
Cosmos 1238 Rocket 2.9 22:05:39 10° NNW 22:08:57 60° W 22:08:57 60° W
Cosmos 1295 Rocket 4.4 22:06:32 30° S 22:09:54 90° E 22:16:14 10° N
Cosmos 2151 Rocket 4.4 22:13:01 39° NE 22:13:01 39° NE 22:16:20 10° NNE
H-2A R/B 3.7 22:15:27 22° SW 22:17:11 28° W 22:20:54 10° NW
Cosmos 864 Rocket 4.5 22:18:36 54° ESE 22:19:12 57° E 22:25:13 10° NNE
COSMOS 2487 3.5 22:18:21 10° NNW 22:21:04 46° NW 22:21:04 46° NW
Cosmos 489 Rocket 4.3 22:16:22 10° NNW 22:22:35 89° ENE 22:23:53 59° SSE
SL-08 RB Rocket 3.8 22:23:16 66° NE 22:23:16 66° NE 22:27:32 10° N
ARGOS 3.0 22:23:56 71° SSE 22:24:32 86° ENE 22:29:55 10° NNW
APEX 3.9 22:24:54 53° WNW 22:25:02 54° WNW 22:29:35 10° NNE
Cosmos 1023 Rocket 4.3 22:20:06 10° NNW 22:25:14 87° ENE 22:25:25 83° SE
Cosmos 2366 rocket 3.9 22:26:54 61° SSE 22:27:55 74° E 22:34:14 10° N
Meteor 1-25 Rocket 4.4 22:31:42 59° E 22:31:42 59° E 22:37:09 10° NNE
ATLAS 5 CENTAUR R/B 4.2 22:26:57 10° WNW 22:31:43 23° WSW 22:34:33 17° SW
H-2A R/B 2.3 22:44:16 63° NE 22:44:16 63° NE 22:49:07 10° N
Cosmos 2278 Rocket 4.2 22:41:17 10° WSW 22:45:57 26° WNW 22:50:39 10° N
Meteor 1-18 Rocket 4.3 22:43:13 10° N 22:48:48 69° ENE 22:48:48 69° ENE
Cosmos 1833 Rocket 3.2 22:45:08 10° N 22:49:59 47° NE 22:49:59 47° NE
Cosmos 614 Rocket 4.2 22:46:08 10° NNW 22:50:29 65° NNW 22:50:29 65° NNW
Cosmos 2218 Rocket 4.5 22:52:15 42° SW 22:54:09 58° W 23:00:28 10° N
Cosmos 1140 Rocket 4.4 22:54:08 10° NNW 22:58:42 41° W 22:58:42 41° W
Cosmos 2082 Rocket 2.5 23:04:09 10° NNW 23:08:58 65° NNW 23:08:58 65° NNW
USA 234 3.6 23:03:43 10° NE 23:10:09 62° NW 23:16:33 10° WSW
Cosmos 1727 Rocket 4.1 23:08:28 10° NNW 23:14:24 67° W 23:14:24 67° W
Terra 3.9 23:47:56 23° WNW 23:47:56 23° WNW 23:50:14 10° NW
